EW9733 Weather Reports


time (UTC)temp
C
wind
direction
speed
KPH
gust
KPH
rain 1hr
cm
rain 24hr
cm
rain mn
cm
humidity
%
barometer
mb
20260831230041 20 173 3.2 9.7 0.00 0.23 0.03 73 1017.2
20260831224540 21 171 0.0 6.4 0.00 0.23 0.03 72 1017.2
20260831223042 21 90 0.0 11.3 0.00 0.23 0.03 71 1017.3
20260831221542 21 156 0.0 8.0 0.00 0.23 0.03 71 1017.3
20260831220038 21 162 3.2 8.0 0.00 0.23 0.03 70 1017.3
20260831214543 21 173 1.6 6.4 0.00 0.23 0.03 70 1017.5
20260831213043 21 185 1.6 8.0 0.00 0.23 0.03 70 1017.4
20260831211537 22 159 3.2 11.3 0.00 0.23 0.03 68 1017.4
20260831210038 22 165 0.0 8.0 0.00 0.23 0.03 68 1017.5
20260831204549 22 157 0.0 8.0 0.00 0.23 0.03 65 1017.6
20260831203054 23 165 3.2 6.4 0.00 0.23 0.03 64 1017.5
20260831201535 22 182 1.6 8.0 0.00 0.23 0.03 65 1017.5
20260831200040 22 170 3.2 9.7 0.00 0.23 0.03 66 1017.5
20260831194541 22 171 1.6 9.7 0.00 0.23 0.03 66 1017.6
20260831193035 22 319 0.0 12.9 0.00 0.23 0.03 65 1017.9
20260831191535 22 138 1.6 9.7 0.00 0.23 0.03 63 1017.7
20260831190050 22 176 1.6 8.0 0.00 0.23 0.03 63 1018.0
20260831184533 23 173 4.8 11.3 0.00 0.23 0.03 63 1018.3
20260831183034 23 89 0.0 6.4 0.00 0.23 0.03 60 1018.2
20260831181539 23 167 3.2 8.0 0.00 0.23 0.03 61 1018.2
20260831180034 23 96 0.0 9.7 0.00 0.23 0.03 58 1018.2
20260831174529 23 167 1.6 8.0 0.00 0.23 0.03 60 1018.5
20260831173028 22 186 3.2 9.7 0.00 0.23 0.03 61 1018.5
20260831171530 23 83 0.0 8.0 0.00 0.23 0.03 62 1018.6
20260831170035 23 86 1.6 9.7 0.00 0.23 0.03 60 1018.8
20260831164528 23 240 0.0 3.2 0.00 0.23 0.03 60 1018.8
20260831163026 22 302 1.6 8.0 0.00 0.23 0.03 60 1019.1
20260831161523 23 34 1.6 16.1 0.00 0.23 0.03 62 1019.2
20260831160038 22 106 0.0 9.7 0.00 0.23 0.03 60 1019.3
20260831154521 22 52 0.0 11.3 0.00 0.23 0.03 59 1019.4
20260831153043 22 34 1.6 12.9 0.00 0.23 0.03 59 1019.5
20260831151519 22 32 1.6 9.7 0.00 0.23 0.03 61 1019.5
20260831150016 22 71 1.6 8.0 0.00 0.23 0.03 60 1019.4
20260831144511 22 52 1.6 8.0 0.00 0.23 0.03 62 1019.4
20260831143007 21 45 0.0 8.0 0.00 0.23 0.03 66 1019.4
20260831141509 21 40 0.0 6.4 0.00 0.23 0.03 68 1019.3
20260831140059 21 84 1.6 4.8 0.00 0.23 0.03 70 1019.3
20260831134604 20 93 0.0 9.7 0.00 0.23 0.03 71 1019.4
20260831133051 20 124 0.0 4.8 0.00 0.23 0.03 78 1019.3
20260831131551 18 38 1.6 6.4 0.00 0.23 0.03 85 1019.2
20260831130050 18 53 0.0 4.8 0.00 0.23 0.03 92 1019.2
20260831124538 17 48 1.6 3.2 0.00 0.23 0.03 93 1019.1
20260831123043 17 51 0.0 12.9 0.00 0.23 0.03 93 1019.1
20260831121537 16 83 0.0 6.4 0.00 0.23 0.03 94 1018.8
20260831120055 16 190 0.0 0.0 0.00 0.23 0.03 93 1018.9
20260831114532 16 193 0.0 1.6 0.00 0.23 0.03 93 1018.8
20260831113026 15 193 0.0 1.6 0.00 0.23 0.03 93 1018.6
20260831111525 15 193 0.0 0.0 0.03 0.23 0.03 92 1018.7
20260831110022 15 193 0.0 0.0 0.03 0.23 0.03 92 1018.4
20260831104531 15 193 0.0 0.0 0.03 0.23 0.03 92 1018.3
20260831103016 15 193 0.0 0.0 0.03 0.23 0.03 91 1018.2
20260831101536 15 193 0.0 0.0 0.00 0.20 0.00 91 1017.8
20260831100037 16 193 0.0 0.0 0.00 0.20 0.00 91 1017.7
20260831094530 16 193 0.0 0.0 0.00 0.20 0.00 91 1017.6
20260831093029 16 193 0.0 0.0 0.00 0.20 0.00 91 1017.5
20260831091528 16 193 0.0 0.0 0.00 0.20 0.00 91 1017.5
20260831090027 16 193 0.0 0.0 0.00 0.20 0.00 90 1017.4
20260831084527 16 193 0.0 0.0 0.00 0.20 0.00 90 1017.3
20260831083025 17 193 0.0 0.0 0.00 0.20 0.00 90 1017.1
20260831081533 17 193 0.0 0.0 0.00 0.20 0.00 90 1017.0
20260831080016 17 193 0.0 0.0 0.00 0.20 0.00 90 1016.8
20260831074517 17 193 0.0 0.0 0.00 0.20 0.00 90 1016.6
20260831073011 17 193 0.0 1.6 0.00 0.20 0.00 90 1016.3
20260831071510 18 194 0.0 0.0 0.00 0.20 0.00 90 1016.3
20260831070012 18 194 0.0 0.0 0.00 0.20 0.00 90 1016.2
20260831064505 18 194 0.0 0.0 0.00 0.20 0.00 90 1016.2
20260831063004 18 194 0.0 0.0 0.00 0.20 0.00 90 1016.2
20260831061502 19 194 0.0 0.0 0.00 0.20 0.00 90 1016.2
20260831060109 19 194 0.0 0.0 0.00 0.20 0.00 90 1016.1
20260831054559 19 194 0.0 0.0 0.00 0.20 0.00 89 1016.0
20260831053054 20 194 0.0 0.0 0.00 0.20 0.00 89 1015.7
20260831051616 20 194 0.0 0.0 0.00 0.20 0.00 89 1015.6
20260831050051 20 194 0.0 0.0 0.00 0.20 0.00 89 1015.5
20260831044549 20 194 0.0 0.0 0.00 0.20 0.00 89 1015.5
20260831043048 21 194 0.0 0.0 0.05 0.20 0.00 88 1015.6
20260831041549 21 194 0.0 0.0 0.10 0.20 0.00 88 1015.6
20260831040049 21 194 0.0 0.0 0.20 0.20 0.00 87 1015.5
20260831034542 21 194 0.0 1.6 0.20 0.20 0.20 87 1015.6
20260831033042 21 192 0.0 1.6 0.15 0.15 0.15 85 1015.8
20260831031546 22 190 0.0 1.6 0.10 0.10 0.10 83 1015.7
20260831030041 22 193 0.0 3.2 0.00 0.00 0.00 80 1015.8
20260831024540 22 279 0.0 1.6 0.00 0.00 0.00 78 1015.6
20260831023042 22 280 0.0 1.6 0.00 0.00 0.00 76 1015.6
20260831021552 22 280 0.0 1.6 0.00 0.00 0.00 75 1015.5
20260831020038 22 156 0.0 3.2 0.00 0.00 0.00 74 1015.5
20260831014538 22 184 0.0 3.2 0.00 0.00 0.00 72 1015.4
20260831013039 22 184 0.0 3.2 0.00 0.00 0.00 71 1015.3
20260831011540 22 53 0.0 3.2 0.00 0.00 0.00 69 1015.3
20260831010104 23 259 0.0 4.8 0.00 0.00 0.00 68 1015.3
20260831004547 23 236 0.0 4.8 0.00 0.00 0.00 67 1015.1
20260831003036 23 244 0.0 4.8 0.00 0.00 0.00 66 1015.1
20260831001551 23 155 0.0 3.2 0.00 0.00 0.00 64 1014.9
20260831000035 23 176 0.0 3.2 0.00 0.00 0.00 63 1014.7
20260830234534 23 215 0.0 4.8 0.00 0.00 0.00 63 1014.7
20260830233033 23 141 0.0 4.8 0.00 0.00 0.00 61 1014.7
20260830231535 24 178 0.0 9.7 0.00 0.00 0.00 60 1014.8